Regional Weather Roundup
Issued by NWS

Home | Current Version | Previous Version | Graphics & Text | Print | Product List | Glossary On
Versions: 1 2 3 4 5 6 7 8 9 10 11 12 13 14 15 16 17 18 19 20 21 22 23 24 25 26 27 28 29 30 31 32 33 34 35 36 37 38 39 40 41 42 43 44 45 46 47 48 49 50
000
ASUS43 KFSD 292102
RWRSD

WEATHER ROUNDUP FOR SOUTH DAKOTA
NATIONAL WEATHER SERVICE SIOUX FALLS SD
400 PM CDT FRI AUG 29 2014

NOTE: "FAIR" INDICATES FEW OR NO CLOUDS BELOW 12,000 FEET WITH NO
SIGNIFICANT WEATHER AND/OR OBSTRUCTIONS TO VISIBILITY.


SDZ001>005-009-010-012>017-292200-
NORTHWEST AND NORTH CENTRAL SOUTH DAKOTA

CITY           SKY/WX    TMP DP  RH WIND       PRES   REMARKS
BUFFALO          N/A     74  53  48 N18G28    29.93S
FAITH            N/A     75  58  55 N18G24    29.94F
MOBRIDGE       MOSUNNY   73  60  63 N14       29.86R
$$

SDZ012>016-024>037-041>051-057-063-072>074-292200-
SOUTHWEST AND SOUTH CENTRAL SOUTH DAKOTA

CITY           SKY/WX    TMP DP  RH WIND       PRES   REMARKS
RAPID CTY ARPT MOSUNNY   78  53  41 NW13      29.99F
PIERRE         MOSUNNY   80  56  43 N21       29.85R
CUSTER         MOSUNNY   66  51  58 VRB6      30.09F
ELLSWORTH AFB  MOSUNNY   76  53  43 N13G20    29.99
PHILIP         CLOUDY    74  56  53 N18       29.93R
PINE RIDGE     CLOUDY    72  56  57 N7        30.00F
WINNER         LGT RAIN  83  63  50 N13       29.83F
$$

SDZ004>011-016>023-039-040-292200-
NORTHEAST SOUTH DAKOTA

CITY           SKY/WX    TMP DP  RH WIND       PRES   REMARKS
ABERDEEN       MOSUNNY   78  65  63 N10       29.78F
WATERTOWN      PTSUNNY   75  66  73 NW7       29.78S
SISSETON         N/A     78  69  73 N8        29.75S
$$

SDZ017-020-022-023-036>040-048>070-292200-
SOUTHEAST SOUTH DAKOTA

CITY           SKY/WX    TMP DP  RH WIND       PRES   REMARKS
SIOUX FALLS    CLOUDY    66  63  90 S3        29.79R THUNDER
HURON          SUNNY     80  66  62 NW6       29.77F
CHAMBERLAIN    MOSUNNY   81  64  55 NW7       29.80F
MITCHELL       MOSUNNY   80  68  66 NW7       29.78S
YANKTON        CLOUDY    79  70  73 SW9       29.75F
$$

ABBREVIATIONS USED IN REMARKS
   TC - TEMPERATURE IN CELSIUS
  WCI - WIND CHILL INDEX
   HX - HEAT INDEX
  VSB - VISIBILITY



USA.gov is the U.S. government's official web portal to all federal, state and local government web resources and services.